[[{"header":{"parameterUnit":"m.s-1","parameterCategory":1,"la1":30.2991,"la2":30.254,"lo1":-89.0895,"lo2":-89.0444,"dy":0.0017,"dx":0.0017,"nx":28,"ny":28,"refTime":"2025-06-14T09:00:00:Z","depth":0,"parameterNumber":2,"parameterNumberName":"U-component_of_WINDS"},"data":[0,0,0,0,0,0,0,0,0,0,0,0,0,0,0,0,0,0,0,0,0,0,0,0,0,0,0,0,0,0,0,0,0,0,0,0,0,0,0,0,0,0,0,0,0,0,0,0,0,0,0,0,0,0,0,0,0,0,2.8264,2.8267,0,2.8539,2.8542,2.8545,2.859,2.8587,2.8585,2.8583,2.8869,2.8879,2.8888,0,0,0,0,0,0,0,0,0,0,0,0,0,2.7779,2.7788,2.8263,2.8267,2.827,2.8538,2.8542,2.8546,2.859,2.8587,2.8584,2.8582,2.8866,2.8877,2.8889,0,0,0,0,0,0,0,0,0,0,0,0,0,2.8015,2.779,2.8263,2.8325,2.8333,2.8538,2.8542,2.8547,2.8591,2.8587,2.8584,2.858,2.8862,2.8876,2.8891,2.9055,0,0,2.8936,2.8943,0,0,0,0,0,0,0,0,2.8002,2.8033,2.8312,2.8321,2.833,2.8526,2.8476,2.8717,2.8592,2.8493,2.8583,2.8578,2.8758,2.8781,2.8841,2.9068,2.908,2.8937,2.8946,2.8953,2.8957,0,0,0,0,0,0,0,2.7985,2.8022,2.8373,2.8316,2.8327,2.834,2.8369,2.8522,2.8643,2.8501,2.8505,2.8537,2.8762,2.8827,2.8848,2.9085,2.8937,2.895,2.8959,2.8965,2.9458,2.9462,0,0,0,0,0,0,2.7957,2.8008,2.8364,2.8381,2.8154,2.8351,2.8384,2.8467,2.8641,2.8664,2.854,2.8538,2.8803,2.8831,2.8858,2.906,2.8953,2.8967,2.8975,2.9454,2.9459,2.9463,0,0,0,0,0,0,2.7947,2.7989,2.8353,2.8195,2.8243,2.8363,2.8456,2.8474,2.8538,2.867,2.8692,2.8583,2.8801,2.8837,2.9005,2.907,2.8973,2.8987,2.9449,2.9455,2.9461,2.9464,0,0,0,0,0,0,2.7933,2.7985,2.8048,2.8196,2.8251,2.8494,2.846,2.8482,2.8563,2.8564,2.8716,2.8738,2.8801,2.8982,2.9019,2.9089,2.8998,2.9443,2.9452,2.9459,2.9459,2.947,2.948,0,0,0,0,0,2.7915,2.8039,2.805,2.8093,2.8332,2.8497,2.8529,2.8597,2.8569,2.8633,2.8717,2.8733,2.9057,2.8999,2.9041,2.9116,2.944,2.9449,2.9459,2.9454,2.9468,2.9479,0,0,0,0,0,0,2.7897,2.806,2.8074,2.825,2.8359,2.8504,2.8588,2.861,2.8731,2.8726,2.8808,2.8842,2.9004,2.9078,2.901,2.9283,2.9246,2.9265,2.9229,2.9243,2.9253,2.9231,2.9011,0,0,0,0,0,2.7912,2.8032,2.8169,2.831,2.8364,2.8466,2.8541,2.8584,2.8702,2.8749,2.8845,2.896,2.9087,2.9169,2.9294,2.947,2.9503,2.9543,2.9553,2.956,2.9575,2.9672,2.969,2.9494,2.9494,2.9494,0,0,2.7947,2.8051,2.8122,2.8309,2.8399,2.8521,2.8505,2.8636,2.8728,2.8769,2.8932,2.9007,2.914,2.9311,2.9392,2.9377,2.9636,2.9573,2.9578,2.9588,2.9683,2.9702,2.9718,2.9501,2.95,2.9499,0,0,2.8073,2.8164,2.8291,2.838,2.8516,2.8583,2.8613,2.8755,2.8806,2.897,2.9003,2.9114,2.9332,2.9425,2.9501,2.9659,2.9678,2.9698,2.9751,2.9844,2.986,2.9874,2.9928,2.9947,2.9712,2.9712,2.9712,0,2.8099,2.8284,2.8353,2.8482,2.8563,2.8604,2.8733,2.8818,2.8987,2.9042,2.9023,2.9296,2.9389,2.9582,2.962,2.9681,2.9718,2.968,2.9852,2.9867,2.9881,2.9934,2.9954,2.9714,2.9713,2.9713,2.9713,0,2.8309,2.8436,2.8523,2.8683,2.8774,2.8902,2.8991,2.9075,2.9111,2.9179,2.9346,2.9458,2.9605,2.9654,2.9691,2.9853,2.9839,2.9835,2.98,2.9899,2.995,2.9972,2.9715,2.9715,2.9715,2.9714,0,0,2.843,2.8626,2.8656,2.8728,2.888,2.8981,2.9111,2.9253,2.9322,2.9438,2.9549,2.9731,2.9728,2.9814,2.9862,2.9944,3.0059,2.993,2.9934,2.9948,3.0242,3.0242,3.0264,3.0073,3.0078,3.0081,3.023,0,2.8572,2.8803,2.8868,2.9064,2.9181,2.9222,2.9335,2.9441,2.9508,2.9619,2.9695,2.9822,2.9809,2.9861,2.9944,3.0027,3.0119,3.0018,3.0177,3.0181,3.014,3.0292,3.0293,3.0428,3.0251,3.0254,3.0257,0,2.8768,2.8884,2.909,2.9225,2.9277,2.9377,2.9512,2.9617,2.9738,2.9781,2.9876,2.9916,3.0053,3.0011,3.0201,3.0131,3.02,3.0251,3.0258,3.0274,3.0223,3.031,3.0473,3.0492,3.0289,3.0287,3.0284,0,2.8832,2.9042,2.9191,2.9252,2.9414,2.9483,2.9554,2.9671,2.9751,2.9869,2.9922,3.0056,3.0128,3.0231,3.0306,3.0269,3.0489,3.0454,3.0528,3.0526,3.0572,3.0567,3.0746,3.0619,3.0619,3.0619,3.0618,0,2.8983,2.9107,2.9222,2.9314,2.9454,2.9529,2.9666,2.9739,2.9842,2.9949,2.9994,3.0093,3.0187,3.0299,3.0359,3.0506,3.054,3.0579,3.0593,3.0573,3.0568,3.0619,3.061,3.0624,3.0623,3.0622,3.0621,0,2.9078,2.9161,2.9326,2.9464,2.9502,2.9599,2.9718,2.9809,2.9878,3.0013,3.0049,3.0158,3.0292,3.0377,3.0549,3.0589,3.075,3.0762,3.0708,3.0714,3.0783,3.0775,3.0999,3.1032,3.0885,3.0886,3.0887,0,2.9167,2.9263,2.9411,2.9485,2.9555,2.9675,2.9756,2.9834,2.9917,3.006,3.0134,3.0271,3.0384,3.0597,3.0692,3.0824,3.0838,3.0908,3.0858,3.0835,3.0837,3.0829,3.0838,3.0915,3.0916,3.0917,3.0918,0,2.9316,2.9352,2.9467,2.9596,2.9691,2.9797,2.9903,2.9961,3.0057,3.0149,3.0285,3.0373,3.0547,3.0682,3.0821,3.0896,3.0923,3.0933,3.0957,3.0937,3.0901,3.0919,3.0728,3.0927,3.0926,3.0926,3.0925,3.0925,2.9411,2.9496,2.9613,2.9739,2.9827,2.9924,3.0015,3.0095,3.0209,3.0355,3.0395,3.0537,3.0655,3.0845,3.0921,3.1034,3.1025,3.106,3.1069,3.1076,3.1075,3.0884,3.1061,3.106,3.106,3.106,3.106,0,2.956,2.9636,2.9751,2.9896,2.9996,3.0011,3.0129,3.0211,3.0335,3.0442,3.0551,3.0708,3.0838,3.0943,3.1078,3.1148,3.1164,3.1181,3.1175,3.1191,3.1077,3.1042,3.1165,3.1165,3.1165,3.1165,3.1165,3.1165,2.9649,2.9794,2.9843,3.0032,3.0109,3.0247,3.0313,3.0403,3.0488,3.0659,3.0767,3.0834,3.094,3.1082,3.1203,3.123,3.1277,3.1291,3.132,3.1212,3.12,3.1189,3.1156,3.1301,3.1301,3.1425,3.1426,3.1427]},{"header":{"parameterUnit":"m.s-1","parameterCategory":1,"la1":30.2991,"la2":30.254,"lo1":-89.0895,"lo2":-89.0444,"dy":0.0017,"dx":0.0017,"nx":28,"ny":28,"refTime":"2025-06-14T09:00:00:Z","depth":0,"parameterNumber":3,"parameterNumberName":"V-component_of_WINDS"},"data":[0,0,0,0,0,0,0,0,0,0,0,0,0,0,0,0,0,0,0,0,0,0,0,0,0,0,0,0,0,0,0,0,0,0,0,0,0,0,0,0,0,0,0,0,0,0,0,0,0,0,0,0,0,0,0,0,0,0,1.6907,1.6907,0,1.6915,1.6915,1.6915,1.6869,1.6868,1.6867,1.6865,1.6877,1.6878,1.688,0,0,0,0,0,0,0,0,0,0,0,0,0,1.6854,1.6856,1.6907,1.6907,1.6907,1.6915,1.6915,1.6915,1.687,1.6868,1.6866,1.6865,1.6876,1.6878,1.688,0,0,0,0,0,0,0,0,0,0,0,0,0,1.6871,1.6856,1.6907,1.6885,1.6883,1.6915,1.6915,1.6915,1.687,1.6868,1.6866,1.6864,1.6876,1.6878,1.688,1.6934,0,0,1.6887,1.6888,0,0,0,0,0,0,0,0,1.6871,1.6873,1.6888,1.6887,1.6885,1.6889,1.6901,1.6922,1.687,1.6875,1.6865,1.6863,1.6883,1.6884,1.689,1.6935,1.6935,1.6887,1.6889,1.689,1.689,0,0,0,0,0,0,0,1.6869,1.6873,1.691,1.6889,1.6886,1.6876,1.6876,1.6904,1.689,1.6875,1.6871,1.6873,1.6881,1.6888,1.689,1.6935,1.6887,1.6889,1.6891,1.6892,1.7024,1.7026,0,0,0,0,0,0,1.6871,1.6872,1.691,1.691,1.6872,1.6878,1.6879,1.689,1.689,1.6888,1.6874,1.687,1.6885,1.6887,1.689,1.6953,1.689,1.6892,1.6893,1.7022,1.7024,1.7027,0,0,0,0,0,0,1.687,1.6875,1.691,1.689,1.6894,1.6881,1.6894,1.6891,1.6898,1.6889,1.6887,1.6884,1.6884,1.6887,1.6923,1.6953,1.6893,1.6895,1.7019,1.7022,1.7025,1.708,0,0,0,0,0,0,1.6868,1.6874,1.6894,1.6891,1.6895,1.6942,1.6896,1.6893,1.6901,1.6896,1.6898,1.6896,1.6882,1.692,1.6925,1.6955,1.6897,1.7016,1.7021,1.7024,1.7075,1.7085,1.7092,0,0,0,0,0,1.6867,1.691,1.6896,1.69,1.692,1.6944,1.6946,1.6929,1.6904,1.6924,1.6919,1.6896,1.6949,1.6924,1.693,1.6961,1.7015,1.7019,1.7024,1.7072,1.7083,1.7092,0,0,0,0,0,0,1.6919,1.6909,1.6893,1.6937,1.6941,1.6936,1.6961,1.6941,1.6954,1.6949,1.6928,1.6928,1.6968,1.6968,1.6941,1.7013,1.6977,1.6984,1.7012,1.7022,1.703,1.703,1.6899,0,0,0,0,0,1.6935,1.6954,1.6945,1.6985,1.6988,1.6974,1.6984,1.697,1.6974,1.6976,1.6973,1.6979,1.6997,1.7009,1.7025,1.7075,1.7075,1.7099,1.7107,1.7114,1.712,1.7146,1.7157,1.7042,1.7042,1.7042,0,0,1.6969,1.6966,1.698,1.6995,1.6997,1.7018,1.6976,1.7,1.7016,1.698,1.7014,1.7012,1.7017,1.706,1.7079,1.7061,1.7152,1.712,1.7126,1.7128,1.7152,1.7163,1.7173,1.7046,1.7045,1.7044,0,0,1.7042,1.7042,1.7075,1.7077,1.708,1.707,1.7078,1.7076,1.7073,1.7106,1.7079,1.7098,1.7129,1.7134,1.714,1.7214,1.7194,1.722,1.7265,1.7291,1.73,1.7308,1.7335,1.7344,1.7226,1.7226,1.7226,0,1.7085,1.7115,1.7094,1.712,1.7128,1.7094,1.7128,1.7131,1.714,1.7146,1.7126,1.7164,1.7165,1.7208,1.7226,1.7232,1.7241,1.722,1.73,1.7308,1.7315,1.734,1.735,1.7229,1.7229,1.7228,1.7228,0,1.7168,1.7189,1.7215,1.7223,1.7233,1.7263,1.7247,1.726,1.7245,1.7237,1.7272,1.7272,1.7287,1.7296,1.7282,1.7338,1.7326,1.7303,1.7268,1.7329,1.7353,1.7362,1.7234,1.7233,1.7232,1.7231,0,0,1.7275,1.727,1.728,1.7283,1.7283,1.7299,1.7327,1.7341,1.7353,1.736,1.7383,1.741,1.7388,1.7395,1.7382,1.7404,1.7463,1.7378,1.7378,1.7394,1.7525,1.7543,1.7554,1.7449,1.7451,1.7452,1.7524,0,1.7347,1.7394,1.7375,1.7424,1.7444,1.7412,1.7436,1.744,1.7433,1.745,1.7443,1.7462,1.7432,1.7436,1.7457,1.7452,1.7489,1.7446,1.7472,1.7473,1.7472,1.7566,1.7586,1.7654,1.7533,1.7535,1.7536,0,1.7437,1.7447,1.7497,1.7493,1.7501,1.7523,1.7534,1.755,1.7553,1.7547,1.7554,1.7535,1.7563,1.7527,1.7565,1.7536,1.7546,1.7544,1.7547,1.7549,1.7509,1.7572,1.7675,1.7686,1.755,1.7549,1.7548,0,1.7511,1.7536,1.7569,1.7573,1.7569,1.7586,1.7585,1.7586,1.7595,1.7605,1.7611,1.7624,1.7632,1.7643,1.7628,1.7603,1.7669,1.7631,1.7666,1.7666,1.7682,1.7681,1.7788,1.7687,1.7686,1.7686,1.7686,0,1.7594,1.7626,1.7602,1.7623,1.7658,1.7637,1.7673,1.7669,1.767,1.7689,1.7663,1.7682,1.7661,1.7679,1.7667,1.7701,1.7705,1.7701,1.7698,1.7704,1.7705,1.7711,1.7706,1.7689,1.7688,1.7688,1.7687,0,1.7683,1.7668,1.7702,1.7696,1.7695,1.7721,1.7716,1.7735,1.7726,1.7752,1.7756,1.7743,1.7762,1.7748,1.7768,1.776,1.7805,1.7795,1.7804,1.7801,1.7836,1.7834,1.7952,1.7966,1.7855,1.7856,1.7857,0,1.7737,1.7761,1.7757,1.7767,1.7768,1.7786,1.7795,1.7775,1.7785,1.779,1.7809,1.7825,1.7837,1.787,1.7863,1.7877,1.7868,1.7908,1.787,1.7875,1.7869,1.7868,1.787,1.7916,1.7917,1.7918,1.7919,0,1.7835,1.7826,1.784,1.7851,1.7862,1.787,1.7876,1.7886,1.7865,1.7879,1.7897,1.7907,1.7926,1.7943,1.7955,1.7955,1.7934,1.7931,1.794,1.7947,1.7951,1.795,1.7826,1.7929,1.7928,1.7927,1.7927,1.7926,1.7909,1.7928,1.7928,1.7944,1.7946,1.7952,1.7969,1.7962,1.7977,1.799,1.7977,1.8,1.8002,1.8015,1.8018,1.8036,1.8019,1.8032,1.8036,1.8039,1.8044,1.7948,1.8038,1.8038,1.8037,1.8037,1.8037,0,1.8006,1.8004,1.8018,1.8027,1.8039,1.8017,1.8022,1.8034,1.8054,1.8057,1.807,1.8091,1.8107,1.8101,1.8115,1.8131,1.8122,1.8135,1.8134,1.8135,1.8058,1.8049,1.8142,1.8142,1.8142,1.8142,1.8142,1.8142,1.8058,1.809,1.8081,1.8114,1.8112,1.8133,1.8138,1.8143,1.8145,1.817,1.8183,1.8178,1.8178,1.8192,1.8206,1.8203,1.821,1.8228,1.8222,1.8151,1.814,1.813,1.8122,1.8229,1.8229,1.8297,1.8298,1.8298]}]]